Location: Most
(50.5133°N, 13.6207°E)
Time: 01:40:36
(UTC+01:00)

Oscar 11 - Pass Details

Date: 05 December 2021
Orbit: 611 x 625 km, 97.6° (Epoch: 17 January)

Event Time Altitude Azimuth Distance (km) Brightness Sun altitude
Rises 17:09:55 0° 187° (S) 2,896 10.9 -10.2°
Reaches altitude 10° 17:12:14 10° 196° (SSW) 1,995 10.2 -10.5°
Maximum altitude 17:16:15 36° 264° (W) 998 8.8 -11.1°
Drops below altitude 10° 17:20:18 10° 331° (NNW) 2,012 9.8 -11.7°
Sets 17:22:40 0° 340° (NNW) 2,924 10.5 -12.1°
